Location: ????????
(37.9452°N, 23.1472°E)
Time: 11:46:57
(UTC+00:00)

IRS-P2 Rocket - Pass Details

Date: 18 April 2024
Orbit: 794 x 875 km, 98.9° (Epoch: 18 May)

Event Time Altitude Azimuth Distance (km) Brightness Sun altitude
Exits shadow 19:42:22 86° 290° (WNW) 809 4.5 -27.6°
Drops below altitude 10° 19:47:36 10° 346° (NNW) 2,402 7.8 -28.4°
Sets 19:49:58 0° 347° (NNW) 3,347 8.7 -28.7°
